Regional Weather Roundup
Issued by NWS

Home | Current Version | Previous Version | Graphics & Text | Print | Product List | Glossary On
Versions: 1 2 3 4 5 6 7 8 9 10 11 12 13 14 15 16 17 18 19 20 21 22 23 24 25 26 27 28 29 30 31 32 33 34 35 36 37 38 39 40 41 42 43 44 45 46 47 48 49 50
000
ASUS43 KMKX 061500
RWRWI

WISCONSIN REGIONAL WEATHER ROUNDUP
NATIONAL WEATHER SERVICE MILWAUKEE/SULLIVAN WI
1000 AM CDT WED MAY 06 2015

NOTE: "FAIR" INDICATES FEW OR NO CLOUDS BELOW 12,000 FEET WITH NO
SIGNIFICANT WEATHER AND/OR OBSTRUCTIONS TO VISIBILITY.

WIZ001-002-006>008-014>016-023>028-061600-
NORTHWEST WISCONSIN

CITY           SKY/WX    TMP DP  RH WIND       PRES   REMARKS
SUPERIOR ARPT  CLOUDY    43  38  83 NE9       30.11F
ASHLAND        LGT RAIN  54  51  90 SE3       30.15S FOG
HAYWARD        CLOUDY    55  49  80 SE6       30.12F
SIREN          CLOUDY    56  51  82 SE8       30.09F
CUMBERLAND     CLOUDY    52  50  93 SE8       30.11F FOG
RICE LAKE      CLOUDY    54  50  88 SE9       30.13F
CHETEK         CLOUDY    54  51  92 SE7       30.12F
LADYSMITH      LGT RAIN  50  49  94 E5        30.16F
EAU CLAIRE     NOT AVBL
MENOMONIE      CLOUDY    56  53  91 E9        30.11F FOG
NEW RICHMOND   CLOUDY    55  55  99 SE12      30.09F FOG
OSCEOLA        CLOUDY    56  56 100 SE8       30.10F FOG
$$

WIZ003>005-009-010-017-018-061600-
NORTH CENTRAL WISCONSIN

CITY           SKY/WX    TMP DP  RH WIND       PRES   REMARKS
MANITOWISH WTR RAIN      46  44  92 SE7       30.18F
ARBOR VITAE    RAIN      47  44  88 SE6       30.19F
WOODRUFF       RAIN      47  44  88 SE6       30.19F
RHINELANDER    CLOUDY    52  45  77 S8        30.20F
EAGLE RIVER    RAIN      51  36  57 S3        30.20S
LAND O LAKES   CLOUDY    56  32  41 S6        30.21S
PHILLIPS       CLOUDY    49  47  92 SE8       30.17S
TOMAHAWK       CLOUDY    48  46  93 CALM      30.20S
MEDFORD        CLOUDY    50  47  91 E7        30.15F
MERRILL        LGT RAIN  48  48 100 SE6       30.19F
$$

WIZ029-030-035-036-043>047-061600-
CENTRAL WISCONSIN

CITY           SKY/WX    TMP DP  RH WIND       PRES   REMARKS
WAUSAU         CLOUDY    51  47  86 E8        30.17S
MOSINEE        CLOUDY    52  48  87 E6        30.18F
MARSHFIELD     MOSUNNY   58  49  72 SE14      30.15F
STEVENS POINT  CLOUDY    50  46  84 E9        30.18F
WAUPACA        CLOUDY    58  47  68 E6        30.20F
WAUTOMA        MOSUNNY   54  52  94 E7        30.19F
WISC RAPIDS    MOSUNNY   60  49  66 E8        30.17F
CAMP DOUGLAS   CLOUDY    54  54 100 E7        30.15S
$$

WIZ011>013-019>022-031-037>040-048>050-061600-
NORTHEAST WISCONSIN

CITY           SKY/WX    TMP DP  RH WIND       PRES   REMARKS
ANTIGO         LGT RAIN  48  46  93 SE9       30.20F
SHAWANO        LGT RAIN  53  49  86 E3        30.21F
OCONTO         CLOUDY    53  46  76 SE5       30.22F
STURGEON BAY   CLOUDY    52  37  58 SE9       30.25F
GREEN BAY      LGT RAIN  55  47  74 E7        30.22S
MANITOWOC      NOT AVBL
APPLETON       PTSUNNY   55  46  71 SE8       30.20F
CLINTONVILLE   CLOUDY    50  46  87 CALM      30.21S
OSHKOSH        PTSUNNY   56  50  80 E8        30.19F
$$

WIZ032>034-041-042-053>061-061600-
SOUTHWEST WISCONSIN

CITY           SKY/WX    TMP DP  RH WIND       PRES   REMARKS
LA CROSSE      LGT RAIN  60  55  83 SE6       30.11F
SPARTA         CLOUDY    58  54  89 SE6       30.15S FOG
VIROQUA        CLOUDY    54  54 100 E9        30.13F VSB 1/2
BOSCOBEL       CLOUDY    59  56  89 E3        30.14S FOG
PRAIRIE DU CHI CLOUDY    57  54  88 E7        30.12F FOG
PLATTEVILLE    CLOUDY    56  55  97 E10       30.14F
$$

WIZ056-057-062-063-064-067-068-061600-
SOUTH CENTRAL WISCONSIN

CITY           SKY/WX    TMP DP  RH WIND       PRES   REMARKS
REEDSBURG      CLOUDY    55  53  92 CALM      30.15F FOG
BARABOO/DELLS  NOT AVBL
LONE ROCK      NOT AVBL
MINERAL POINT  LGT RAIN  55  54  94 E8        30.14F
MADISON        LGT RAIN  55  53  93 VRB6      30.17F FOG
MIDDLETON      CLOUDY    55  53  96 SE6       30.17S
WATERTOWN      CLOUDY    55  55 100 E6        30.17F FOG
MONROE         LGT RAIN  52  52 100 NE3       30.15F VSB 1/2
JANESVILLE     CLOUDY    57  55  94 SW3       30.18S FOG
$$

WIZ051-052-058>065-066-070>072-061600-
SOUTHEAST WISCONSIN

CITY           SKY/WX    TMP DP  RH WIND       PRES   REMARKS
MILWAUKEE      CLOUDY    49  46  90 CALM      30.21S FOG
WAUKESHA       CLOUDY    52  50  93 E6        30.20F FOG
MILWAUKEE/TIMM CLOUDY    50  46  87 NE5       30.21F FOG
RACINE         FOG       52  50  93 SE3       30.22S VSB 3/4
BURLINGTON     CLOUDY    52  52 100 E6        30.18F FOG
KENOSHA        FOG       55  53  93 E6        30.19F VSB 1/2
FOND DU LAC    PTSUNNY   58  52  80 E8        30.19F
SHEBOYGAN      FOG       51  50  96 E8        30.22F VSB 1/4
WEST BEND      CLOUDY    50  50 100 E7        30.20F FOG
JUNEAU         CLOUDY    56  53  89 E7        30.19F
$$

LSZ147-162-061600-
LAKE SUPERIOR

STATION/POSITION TIME  TEMP    WIND        PRES    WAVE
                       AIR SEA DIR/SP/G            HT/PER
                 (UTC) (F)     (DEG/KT/KT) (MB)    (FT/S)
W MID LAKE BUOY  1350   39 35   70/  8/  8 1022.7F   1
DEVILS ISLAND    1400   48      90/  6/  7 1021.6F
PORT WING        1440   41     350/  2/ 10 1020.3F
SAXON HARBOR     1440   60     190/  5/ 12 1020.3F
$$

LMZ867-665-643>646-061600-
LAKE MICHIGAN

STATION/POSITION TIME  TEMP    WIND        PRES    WAVE
                       AIR SEA DIR/SP/G            HT/PER
                 (UTC) (F)     (DEG/KT/KT) (MB)    (FT/S)
CHAMBERS ISLAND  1400   53      60/  3/  4 1024.0S
NORTHPORT PIER   1400   43     120/  4/  5 1024.0S
SISTER BAY       1402   57        CALM       N/A
KEWAUNEE LAKESHO 1400   45      40/  6/  7 1023.2R
SHEBOYGAN LAKESH 1400   44      50/  2/  3 1024.3F
PORT WASHINGTON  1440   46      40/  3/  6 1024.0S
ATWATER BUOY     1400   43      20/  6/  8 1024.2R
MILWAUKEE LAKESH 1400   44      40/  7/  8   N/A
KENOSHA   LAKESH 1400   44      20/  3/  4 1022.7F
$$

TC  - TEMPERATURE IN CELSIUS
VSB - VISIBILITY IN STATUTE MILES
WCI - WIND CHILL INDEX
HX  - HEAT INDEX




USA.gov is the U.S. government's official web portal to all federal, state and local government web resources and services.